iso_date,epoch_date,Year,Hour,Min,DOY,POS_DOY,Lat,Lon,BP,Ts,Ta,has_bp,has_ts,has_ta,BuoyID,Buoy_Type,Buoy_Owner,Logistics,Hemisphere
2018-08-10T19:00:28Z,1533927629,2018,19,0,222.792,222.792,71.009,30.226,1013.2,10.03,-999.0,yes,yes,no,300234062323360,BD2GI,AOML,CCGS_HUDSON,North
2018-08-10T19:59:31Z,1533931171,2018,20,0,222.833,222.833,71.01,30.212,1013.2,10.02,-999.0,yes,yes,no,300234062323360,BD2GI,AOML,CCGS_HUDSON,North
2018-08-10T21:00:00Z,1533934800,2018,21,0,222.875,222.875,71.013,30.195,1012.9,10.04,-999.0,yes,yes,no,300234062323360,BD2GI,AOML,CCGS_HUDSON,North
2018-08-10T22:00:28Z,1533938429,2018,22,0,222.917,222.917,71.016,30.188,1012.4,10.08,-999.0,yes,yes,no,300234062323360,BD2GI,AOML,CCGS_HUDSON,North
2018-08-10T22:59:31Z,1533941971,2018,23,0,222.958,222.958,71.016,30.188,1011.8,10.14,-999.0,yes,yes,no,300234062323360,BD2GI,AOML,CCGS_HUDSON,North
2018-08-11T00:00:00Z,1533945600,2018,0,0,223.0,223.0,71.014,30.202,1011.4,10.07,-999.0,yes,yes,no,300234062323360,BD2GI,AOML,CCGS_HUDSON,North
2018-08-11T01:00:28Z,1533949229,2018,1,0,223.042,223.042,71.009,30.226,1011.1,9.84,-999.0,yes,yes,no,300234062323360,BD2GI,AOML,CCGS_HUDSON,North
2018-08-11T01:59:31Z,1533952771,2018,2,0,223.083,223.083,71.0,30.251,1010.3,10.13,-999.0,yes,yes,no,300234062323360,BD2GI,AOML,CCGS_HUDSON,North
2018-08-11T03:00:00Z,1533956400,2018,3,0,223.125,223.125,70.991,30.279,1009.6,10.27,-999.0,yes,yes,no,300234062323360,BD2GI,AOML,CCGS_HUDSON,North
2018-08-11T04:00:28Z,1533960029,2018,4,0,223.167,223.167,70.983,30.299,1009.0,10.35,-999.0,yes,yes,no,300234062323360,BD2GI,AOML,CCGS_HUDSON,North
2018-08-11T04:59:31Z,1533963571,2018,5,0,223.208,223.208,70.981,30.302,1008.6,10.04,-999.0,yes,yes,no,300234062323360,BD2GI,AOML,CCGS_HUDSON,North
2018-08-11T06:00:00Z,1533967200,2018,6,0,223.25,223.25,70.982,30.294,1008.3,9.59,-999.0,yes,yes,no,300234062323360,BD2GI,AOML,CCGS_HUDSON,North
2018-08-11T07:00:28Z,1533970829,2018,7,0,223.292,223.292,70.985,30.278,1007.4,9.67,-999.0,yes,yes,no,300234062323360,BD2GI,AOML,CCGS_HUDSON,North
2018-08-11T07:59:31Z,1533974371,2018,8,0,223.333,223.333,70.99,30.254,1006.8,9.84,-999.0,yes,yes,no,300234062323360,BD2GI,AOML,CCGS_HUDSON,North
2018-08-11T09:00:00Z,1533978000,2018,9,0,223.375,223.375,70.996,30.221,1006.5,9.92,-999.0,yes,yes,no,300234062323360,BD2GI,AOML,CCGS_HUDSON,North
2018-08-11T10:00:28Z,1533981629,2018,10,0,223.417,223.417,71.002,30.187,1005.9,9.82,-999.0,yes,yes,no,300234062323360,BD2GI,AOML,CCGS_HUDSON,North
2018-08-11T10:59:31Z,1533985171,2018,11,0,223.458,223.458,71.005,30.158,1004.9,9.72,-999.0,yes,yes,no,300234062323360,BD2GI,AOML,CCGS_HUDSON,North
2018-08-11T12:00:00Z,1533988800,2018,12,0,223.5,223.5,71.008,30.14,1004.5,9.66,-999.0,yes,yes,no,300234062323360,BD2GI,AOML,CCGS_HUDSON,North
2018-08-11T13:00:28Z,1533992429,2018,13,0,223.542,223.542,71.008,30.136,1003.6,9.53,-999.0,yes,yes,no,300234062323360,BD2GI,AOML,CCGS_HUDSON,North
2018-08-11T13:59:31Z,1533995971,2018,14,0,223.583,223.583,71.006,30.141,1002.9,9.48,-999.0,yes,yes,no,300234062323360,BD2GI,AOML,CCGS_HUDSON,North
2018-08-11T15:00:00Z,1533999600,2018,15,0,223.625,223.625,71.004,30.155,1002.1,9.38,-999.0,yes,yes,no,300234062323360,BD2GI,AOML,CCGS_HUDSON,North
2018-08-11T16:00:28Z,1534003229,2018,16,0,223.667,223.667,71.002,30.173,1001.7,9.31,-999.0,yes,yes,no,300234062323360,BD2GI,AOML,CCGS_HUDSON,North
2018-08-11T16:59:31Z,1534006771,2018,17,0,223.708,223.708,71.0,30.191,1001.2,9.33,-999.0,yes,yes,no,300234062323360,BD2GI,AOML,CCGS_HUDSON,North
2018-08-11T18:00:00Z,1534010400,2018,18,0,223.75,223.75,71.002,30.199,1000.3,9.4,-999.0,yes,yes,no,300234062323360,BD2GI,AOML,CCGS_HUDSON,North
2018-08-11T19:00:28Z,1534014029,2018,19,0,223.792,223.792,71.005,30.194,1000.0,9.42,-999.0,yes,yes,no,300234062323360,BD2GI,AOML,CCGS_HUDSON,North
2018-08-11T19:59:31Z,1534017571,2018,20,0,223.833,223.833,71.008,30.178,1000.0,9.46,-999.0,yes,yes,no,300234062323360,BD2GI,AOML,CCGS_HUDSON,North
2018-08-11T21:00:00Z,1534021200,2018,21,0,223.875,223.875,71.013,30.153,999.6,9.51,-999.0,yes,yes,no,300234062323360,BD2GI,AOML,CCGS_HUDSON,North
2018-08-11T22:00:28Z,1534024829,2018,22,0,223.917,223.917,71.015,30.128,999.1,9.45,-999.0,yes,yes,no,300234062323360,BD2GI,AOML,CCGS_HUDSON,North
2018-08-11T22:59:31Z,1534028371,2018,23,0,223.958,223.958,71.015,30.11,998.7,9.4,-999.0,yes,yes,no,300234062323360,BD2GI,AOML,CCGS_HUDSON,North
2018-08-12T00:00:00Z,1534032000,2018,0,0,224.0,224.0,71.013,30.104,998.5,9.46,-999.0,yes,yes,no,300234062323360,BD2GI,AOML,CCGS_HUDSON,North
2018-08-12T01:00:28Z,1534035629,2018,1,0,224.042,224.042,71.006,30.109,998.5,9.5,-999.0,yes,yes,no,300234062323360,BD2GI,AOML,CCGS_HUDSON,North
2018-08-12T01:59:31Z,1534039171,2018,2,0,224.083,224.083,70.999,30.12,998.3,9.53,-999.0,yes,yes,no,300234062323360,BD2GI,AOML,CCGS_HUDSON,North
2018-08-12T03:00:00Z,1534042800,2018,3,0,224.125,224.125,70.991,30.131,998.3,9.59,-999.0,yes,yes,no,300234062323360,BD2GI,AOML,CCGS_HUDSON,North
2018-08-12T04:00:28Z,1534046429,2018,4,0,224.167,224.167,70.984,30.142,998.3,9.61,-999.0,yes,yes,no,300234062323360,BD2GI,AOML,CCGS_HUDSON,North
2018-08-12T04:59:31Z,1534049971,2018,5,0,224.208,224.208,70.98,30.149,998.6,9.64,-999.0,yes,yes,no,300234062323360,BD2GI,AOML,CCGS_HUDSON,North
2018-08-12T06:00:00Z,1534053600,2018,6,0,224.25,224.25,70.977,30.145,998.7,9.73,-999.0,yes,yes,no,300234062323360,BD2GI,AOML,CCGS_HUDSON,North
2018-08-12T07:00:28Z,1534057229,2018,7,0,224.292,224.292,70.978,30.126,999.1,9.71,-999.0,yes,yes,no,300234062323360,BD2GI,AOML,CCGS_HUDSON,North
2018-08-12T07:59:31Z,1534060771,2018,8,0,224.333,224.333,70.982,30.099,999.5,9.69,-999.0,yes,yes,no,300234062323360,BD2GI,AOML,CCGS_HUDSON,North
2018-08-12T09:00:00Z,1534064400,2018,9,0,224.375,224.375,70.987,30.066,999.8,9.75,-999.0,yes,yes,no,300234062323360,BD2GI,AOML,CCGS_HUDSON,North
2018-08-12T10:00:28Z,1534068029,2018,10,0,224.417,224.417,70.992,30.037,1000.1,9.75,-999.0,yes,yes,no,300234062323360,BD2GI,AOML,CCGS_HUDSON,North
2018-08-12T10:59:31Z,1534071571,2018,11,0,224.458,224.458,70.995,30.007,1000.2,9.73,-999.0,yes,yes,no,300234062323360,BD2GI,AOML,CCGS_HUDSON,North
2018-08-12T12:00:00Z,1534075200,2018,12,0,224.5,224.5,70.995,29.985,1000.2,9.74,-999.0,yes,yes,no,300234062323360,BD2GI,AOML,CCGS_HUDSON,North
2018-08-12T13:00:28Z,1534078829,2018,13,0,224.542,224.542,70.992,29.976,1000.5,9.73,-999.0,yes,yes,no,300234062323360,BD2GI,AOML,CCGS_HUDSON,North
2018-08-12T13:59:31Z,1534082371,2018,14,0,224.583,224.583,70.986,29.97,1000.5,9.71,-999.0,yes,yes,no,300234062323360,BD2GI,AOML,CCGS_HUDSON,North
2018-08-12T15:00:00Z,1534086000,2018,15,0,224.625,224.625,70.978,29.975,1000.6,9.7,-999.0,yes,yes,no,300234062323360,BD2GI,AOML,CCGS_HUDSON,North
2018-08-12T16:00:28Z,1534089629,2018,16,0,224.667,224.667,70.97,29.98,1000.6,9.67,-999.0,yes,yes,no,300234062323360,BD2GI,AOML,CCGS_HUDSON,North
2018-08-12T16:59:31Z,1534093171,2018,17,0,224.708,224.708,70.965,29.982,1000.6,9.65,-999.0,yes,yes,no,300234062323360,BD2GI,AOML,CCGS_HUDSON,North
2018-08-12T18:00:00Z,1534096800,2018,18,0,224.75,224.75,70.963,29.978,1000.7,9.7,-999.0,yes,yes,no,300234062323360,BD2GI,AOML,CCGS_HUDSON,North
2018-08-12T19:00:28Z,1534100429,2018,19,0,224.792,224.792,70.965,29.97,1000.8,9.69,-999.0,yes,yes,no,300234062323360,BD2GI,AOML,CCGS_HUDSON,North
2018-08-12T19:59:31Z,1534103971,2018,20,0,224.833,224.833,70.967,29.957,1000.7,9.73,-999.0,yes,yes,no,300234062323360,BD2GI,AOML,CCGS_HUDSON,North
2018-08-12T21:00:00Z,1534107600,2018,21,0,224.875,224.875,70.97,29.934,1000.7,9.77,-999.0,yes,yes,no,300234062323360,BD2GI,AOML,CCGS_HUDSON,North
2018-08-12T22:00:28Z,1534111229,2018,22,0,224.917,224.917,70.974,29.908,1000.7,9.8,-999.0,yes,yes,no,300234062323360,BD2GI,AOML,CCGS_HUDSON,North
2018-08-12T22:59:31Z,1534114771,2018,23,0,224.958,224.958,70.977,29.884,1000.6,9.83,-999.0,yes,yes,no,300234062323360,BD2GI,AOML,CCGS_HUDSON,North
2018-08-13T00:00:00Z,1534118400,2018,0,0,225.0,225.0,70.974,29.873,1000.4,9.83,-999.0,yes,yes,no,300234062323360,BD2GI,AOML,CCGS_HUDSON,North
2018-08-13T01:00:28Z,1534122029,2018,1,0,225.042,225.042,70.968,29.865,1000.4,9.84,-999.0,yes,yes,no,300234062323360,BD2GI,AOML,CCGS_HUDSON,North
2018-08-13T01:59:31Z,1534125571,2018,2,0,225.083,225.083,70.961,29.867,1000.3,9.83,-999.0,yes,yes,no,300234062323360,BD2GI,AOML,CCGS_HUDSON,North
2018-08-13T03:00:00Z,1534129200,2018,3,0,225.125,225.125,70.952,29.88,1000.1,9.84,-999.0,yes,yes,no,300234062323360,BD2GI,AOML,CCGS_HUDSON,North
2018-08-13T04:00:28Z,1534132829,2018,4,0,225.167,225.167,70.943,29.895,1000.0,9.85,-999.0,yes,yes,no,300234062323360,BD2GI,AOML,CCGS_HUDSON,North
2018-08-13T04:59:31Z,1534136371,2018,5,0,225.208,225.208,70.933,29.912,1000.1,9.85,-999.0,yes,yes,no,300234062323360,BD2GI,AOML,CCGS_HUDSON,North
2018-08-13T06:00:00Z,1534140000,2018,6,0,225.25,225.25,70.927,29.918,1000.2,9.85,-999.0,yes,yes,no,300234062323360,BD2GI,AOML,CCGS_HUDSON,North
2018-08-13T07:00:28Z,1534143629,2018,7,0,225.292,225.292,70.922,29.913,1000.5,9.86,-999.0,yes,yes,no,300234062323360,BD2GI,AOML,CCGS_HUDSON,North
2018-08-13T07:59:31Z,1534147171,2018,8,0,225.333,225.333,70.921,29.896,1000.7,9.86,-999.0,yes,yes,no,300234062323360,BD2GI,AOML,CCGS_HUDSON,North
2018-08-13T09:00:00Z,1534150800,2018,9,0,225.375,225.375,70.922,29.868,1001.2,9.87,-999.0,yes,yes,no,300234062323360,BD2GI,AOML,CCGS_HUDSON,North
2018-08-13T10:00:28Z,1534154429,2018,10,0,225.417,225.417,70.925,29.837,1001.3,9.88,-999.0,yes,yes,no,300234062323360,BD2GI,AOML,CCGS_HUDSON,North
2018-08-13T10:59:31Z,1534157971,2018,11,0,225.458,225.458,70.925,29.81,1001.7,9.88,-999.0,yes,yes,no,300234062323360,BD2GI,AOML,CCGS_HUDSON,North
2018-08-13T12:00:00Z,1534161600,2018,12,0,225.5,225.5,70.919,29.784,1001.7,9.89,-999.0,yes,yes,no,300234062323360,BD2GI,AOML,CCGS_HUDSON,North
2018-08-13T13:00:28Z,1534165229,2018,13,0,225.542,225.542,70.911,29.762,1001.9,9.89,-999.0,yes,yes,no,300234062323360,BD2GI,AOML,CCGS_HUDSON,North
2018-08-13T13:59:31Z,1534168771,2018,14,0,225.583,225.583,70.898,29.75,1002.0,9.88,-999.0,yes,yes,no,300234062323360,BD2GI,AOML,CCGS_HUDSON,North
2018-08-13T15:00:00Z,1534172400,2018,15,0,225.625,225.625,70.884,29.74,1002.1,9.87,-999.0,yes,yes,no,300234062323360,BD2GI,AOML,CCGS_HUDSON,North
2018-08-13T16:00:28Z,1534176029,2018,16,0,225.667,225.667,70.869,29.732,1002.2,9.84,-999.0,yes,yes,no,300234062323360,BD2GI,AOML,CCGS_HUDSON,North
2018-08-13T16:59:31Z,1534179571,2018,17,0,225.708,225.708,70.857,29.723,1002.1,9.79,-999.0,yes,yes,no,300234062323360,BD2GI,AOML,CCGS_HUDSON,North
2018-08-13T18:00:00Z,1534183200,2018,18,0,225.75,225.75,70.851,29.712,1002.2,9.77,-999.0,yes,yes,no,300234062323360,BD2GI,AOML,CCGS_HUDSON,North
2018-08-13T19:00:28Z,1534186829,2018,19,0,225.792,225.792,70.85,29.7,1002.5,9.76,-999.0,yes,yes,no,300234062323360,BD2GI,AOML,CCGS_HUDSON,North
2018-08-13T19:59:31Z,1534190371,2018,20,0,225.833,225.833,70.851,29.694,1002.7,9.73,-999.0,yes,yes,no,300234062323360,BD2GI,AOML,CCGS_HUDSON,North
2018-08-13T21:00:00Z,1534194000,2018,21,0,225.875,225.875,70.852,29.683,1002.9,9.69,-999.0,yes,yes,no,300234062323360,BD2GI,AOML,CCGS_HUDSON,North
2018-08-13T22:00:28Z,1534197629,2018,22,0,225.917,225.917,70.853,29.671,1002.9,9.69,-999.0,yes,yes,no,300234062323360,BD2GI,AOML,CCGS_HUDSON,North
2018-08-13T22:59:31Z,1534201171,2018,23,0,225.958,225.958,70.852,29.664,1002.9,9.71,-999.0,yes,yes,no,300234062323360,BD2GI,AOML,CCGS_HUDSON,North
2018-08-14T00:00:00Z,1534204800,2018,0,0,226.0,226.0,70.848,29.661,1003.0,9.71,-999.0,yes,yes,no,300234062323360,BD2GI,AOML,CCGS_HUDSON,North
2018-08-14T01:00:28Z,1534208429,2018,1,0,226.042,226.042,70.841,29.663,1003.2,9.72,-999.0,yes,yes,no,300234062323360,BD2GI,AOML,CCGS_HUDSON,North
2018-08-14T01:59:31Z,1534211971,2018,2,0,226.083,226.083,70.833,29.671,1003.3,9.75,-999.0,yes,yes,no,300234062323360,BD2GI,AOML,CCGS_HUDSON,North
2018-08-14T03:00:00Z,1534215600,2018,3,0,226.125,226.125,70.824,29.692,1003.5,9.76,-999.0,yes,yes,no,300234062323360,BD2GI,AOML,CCGS_HUDSON,North
2018-08-14T04:00:28Z,1534219229,2018,4,0,226.167,226.167,70.811,29.727,1003.7,9.79,-999.0,yes,yes,no,300234062323360,BD2GI,AOML,CCGS_HUDSON,North
2018-08-14T04:59:31Z,1534222771,2018,5,0,226.208,226.208,70.802,29.768,1003.7,9.77,-999.0,yes,yes,no,300234062323360,BD2GI,AOML,CCGS_HUDSON,North
2018-08-14T06:00:00Z,1534226400,2018,6,0,226.25,226.25,70.797,29.805,1003.9,9.72,-999.0,yes,yes,no,300234062323360,BD2GI,AOML,CCGS_HUDSON,North
2018-08-14T07:00:28Z,1534230029,2018,7,0,226.292,226.292,70.794,29.836,1004.4,9.67,-999.0,yes,yes,no,300234062323360,BD2GI,AOML,CCGS_HUDSON,North
2018-08-14T07:59:31Z,1534233571,2018,8,0,226.333,226.333,70.794,29.853,1004.9,9.67,-999.0,yes,yes,no,300234062323360,BD2GI,AOML,CCGS_HUDSON,North
2018-08-14T09:00:00Z,1534237200,2018,9,0,226.375,226.375,70.791,29.862,1005.4,9.71,-999.0,yes,yes,no,300234062323360,BD2GI,AOML,CCGS_HUDSON,North
2018-08-14T10:00:28Z,1534240829,2018,10,0,226.417,226.417,70.788,29.855,1005.9,9.76,-999.0,yes,yes,no,300234062323360,BD2GI,AOML,CCGS_HUDSON,North
2018-08-14T10:59:31Z,1534244371,2018,11,0,226.458,226.458,70.786,29.836,1006.4,9.77,-999.0,yes,yes,no,300234062323360,BD2GI,AOML,CCGS_HUDSON,North
2018-08-14T12:00:00Z,1534248000,2018,12,0,226.5,226.5,70.784,29.815,1007.1,9.77,-999.0,yes,yes,no,300234062323360,BD2GI,AOML,CCGS_HUDSON,North
2018-08-14T13:00:28Z,1534251629,2018,13,0,226.542,226.542,70.782,29.808,1007.3,9.75,-999.0,yes,yes,no,300234062323360,BD2GI,AOML,CCGS_HUDSON,North
2018-08-14T13:59:31Z,1534255171,2018,14,0,226.583,226.583,70.777,29.828,1007.4,9.75,-999.0,yes,yes,no,300234062323360,BD2GI,AOML,CCGS_HUDSON,North
2018-08-14T15:00:00Z,1534258800,2018,15,0,226.625,226.625,70.772,29.864,1007.5,9.71,-999.0,yes,yes,no,300234062323360,BD2GI,AOML,CCGS_HUDSON,North
2018-08-14T16:00:28Z,1534262429,2018,16,0,226.667,226.667,70.764,29.91,1007.7,9.71,-999.0,yes,yes,no,300234062323360,BD2GI,AOML,CCGS_HUDSON,North
2018-08-14T16:59:31Z,1534265971,2018,17,0,226.708,226.708,70.757,29.957,1007.8,9.73,-999.0,yes,yes,no,300234062323360,BD2GI,AOML,CCGS_HUDSON,North
2018-08-14T18:00:00Z,1534269600,2018,18,0,226.75,226.75,70.749,30.005,1008.1,9.75,-999.0,yes,yes,no,300234062323360,BD2GI,AOML,CCGS_HUDSON,North
2018-08-14T19:00:28Z,1534273229,2018,19,0,226.792,226.792,70.742,30.039,1008.3,9.73,-999.0,yes,yes,no,300234062323360,BD2GI,AOML,CCGS_HUDSON,North
2018-08-14T19:59:31Z,1534276771,2018,20,0,226.833,226.833,70.736,30.065,1008.6,9.73,-999.0,yes,yes,no,300234062323360,BD2GI,AOML,CCGS_HUDSON,North
2018-08-14T21:00:00Z,1534280400,2018,21,0,226.875,226.875,70.732,30.07,1009.0,9.71,-999.0,yes,yes,no,300234062323360,BD2GI,AOML,CCGS_HUDSON,North
2018-08-14T22:00:28Z,1534284029,2018,22,0,226.917,226.917,70.731,30.058,1009.3,9.69,-999.0,yes,yes,no,300234062323360,BD2GI,AOML,CCGS_HUDSON,North
2018-08-14T22:59:31Z,1534287571,2018,23,0,226.958,226.958,70.73,30.038,1009.6,9.17,-999.0,yes,yes,no,300234062323360,BD2GI,AOML,CCGS_HUDSON,North
2018-08-15T00:00:00Z,1534291200,2018,0,0,227.0,227.0,70.729,30.017,1010.0,9.21,-999.0,yes,yes,no,300234062323360,BD2GI,AOML,CCGS_HUDSON,North
2018-08-15T01:00:28Z,1534294829,2018,1,0,227.042,227.042,70.723,30.014,1010.1,9.48,-999.0,yes,yes,no,300234062323360,BD2GI,AOML,CCGS_HUDSON,North
2018-08-15T01:59:31Z,1534298371,2018,2,0,227.083,227.083,70.717,30.052,1010.2,9.53,-999.0,yes,yes,no,300234062323360,BD2GI,AOML,CCGS_HUDSON,North
2018-08-15T03:00:00Z,1534302000,2018,3,0,227.125,227.125,70.705,30.138,1010.3,9.45,-999.0,yes,yes,no,300234062323360,BD2GI,AOML,CCGS_HUDSON,North
2018-08-15T04:00:28Z,1534305629,2018,4,0,227.167,227.167,70.683,30.221,1010.6,9.36,-999.0,yes,yes,no,300234062323360,BD2GI,AOML,CCGS_HUDSON,North
2018-08-15T04:59:31Z,1534309171,2018,5,0,227.208,227.208,70.655,30.282,1010.8,9.38,-999.0,yes,yes,no,300234062323360,BD2GI,AOML,CCGS_HUDSON,North
2018-08-15T06:00:00Z,1534312800,2018,6,0,227.25,227.25,70.634,30.31,1010.9,9.32,-999.0,yes,yes,no,300234062323360,BD2GI,AOML,CCGS_HUDSON,North
2018-08-15T07:00:28Z,1534316429,2018,7,0,227.292,227.292,70.622,30.336,1011.2,9.32,-999.0,yes,yes,no,300234062323360,BD2GI,AOML,CCGS_HUDSON,North
2018-08-15T07:59:31Z,1534319971,2018,8,0,227.333,227.333,70.618,30.351,1011.4,9.21,-999.0,yes,yes,no,300234062323360,BD2GI,AOML,CCGS_HUDSON,North
2018-08-15T09:00:00Z,1534323600,2018,9,0,227.375,227.375,70.624,30.35,1011.9,9.21,-999.0,yes,yes,no,300234062323360,BD2GI,AOML,CCGS_HUDSON,North
2018-08-15T10:00:28Z,1534327229,2018,10,0,227.417,227.417,70.635,30.331,1012.4,9.24,-999.0,yes,yes,no,300234062323360,BD2GI,AOML,CCGS_HUDSON,North
2018-08-15T10:59:31Z,1534330771,2018,11,0,227.458,227.458,70.648,30.302,1012.7,9.2,-999.0,yes,yes,no,300234062323360,BD2GI,AOML,CCGS_HUDSON,North
2018-08-15T12:00:00Z,1534334400,2018,12,0,227.5,227.5,70.661,30.276,1013.0,9.21,-999.0,yes,yes,no,300234062323360,BD2GI,AOML,CCGS_HUDSON,North
2018-08-15T13:00:28Z,1534338029,2018,13,0,227.542,227.542,70.672,30.262,1013.0,9.21,-999.0,yes,yes,no,300234062323360,BD2GI,AOML,CCGS_HUDSON,North
2018-08-15T13:59:31Z,1534341571,2018,14,0,227.583,227.583,70.675,30.267,1013.1,9.33,-999.0,yes,yes,no,300234062323360,BD2GI,AOML,CCGS_HUDSON,North
2018-08-15T15:00:00Z,1534345200,2018,15,0,227.625,227.625,70.671,30.292,1013.0,9.38,-999.0,yes,yes,no,300234062323360,BD2GI,AOML,CCGS_HUDSON,North
2018-08-15T16:00:28Z,1534348829,2018,16,0,227.667,227.667,70.662,30.332,1013.0,9.41,-999.0,yes,yes,no,300234062323360,BD2GI,AOML,CCGS_HUDSON,North
2018-08-15T16:59:31Z,1534352371,2018,17,0,227.708,227.708,70.647,30.373,1013.1,9.41,-999.0,yes,yes,no,300234062323360,BD2GI,AOML,CCGS_HUDSON,North
2018-08-15T18:00:00Z,1534356000,2018,18,0,227.75,227.75,70.631,30.415,1013.0,9.37,-999.0,yes,yes,no,300234062323360,BD2GI,AOML,CCGS_HUDSON,North
2018-08-15T19:00:28Z,1534359629,2018,19,0,227.792,227.792,70.614,30.441,1013.2,9.33,-999.0,yes,yes,no,300234062323360,BD2GI,AOML,CCGS_HUDSON,North
2018-08-15T19:59:31Z,1534363171,2018,20,0,227.833,227.833,70.604,30.452,1013.3,9.3,-999.0,yes,yes,no,300234062323360,BD2GI,AOML,CCGS_HUDSON,North
2018-08-15T21:00:00Z,1534366800,2018,21,0,227.875,227.875,70.598,30.446,1013.3,9.34,-999.0,yes,yes,no,300234062323360,BD2GI,AOML,CCGS_HUDSON,North
2018-08-15T22:00:28Z,1534370429,2018,22,0,227.917,227.917,70.596,30.426,1013.4,9.33,-999.0,yes,yes,no,300234062323360,BD2GI,AOML,CCGS_HUDSON,North
2018-08-15T22:59:31Z,1534373971,2018,23,0,227.958,227.958,70.6,30.401,1013.5,9.3,-999.0,yes,yes,no,300234062323360,BD2GI,AOML,CCGS_HUDSON,North
2018-08-16T00:00:00Z,1534377600,2018,0,0,228.0,228.0,70.61,30.377,1013.4,9.3,-999.0,yes,yes,no,300234062323360,BD2GI,AOML,CCGS_HUDSON,North
2018-08-16T01:00:28Z,1534381229,2018,1,0,228.042,228.042,70.627,30.358,1013.2,9.29,-999.0,yes,yes,no,300234062323360,BD2GI,AOML,CCGS_HUDSON,North
2018-08-16T01:59:31Z,1534384771,2018,2,0,228.083,228.083,70.642,30.344,1013.0,9.28,-999.0,yes,yes,no,300234062323360,BD2GI,AOML,CCGS_HUDSON,North
2018-08-16T03:00:00Z,1534388400,2018,3,0,228.125,228.125,70.648,30.346,1012.9,9.29,-999.0,yes,yes,no,300234062323360,BD2GI,AOML,CCGS_HUDSON,North
2018-08-16T04:00:28Z,1534392029,2018,4,0,228.167,228.167,70.647,30.362,1012.9,9.3,-999.0,yes,yes,no,300234062323360,BD2GI,AOML,CCGS_HUDSON,North
2018-08-16T04:59:31Z,1534395571,2018,5,0,228.208,228.208,70.639,30.394,1012.6,9.32,-999.0,yes,yes,no,300234062323360,BD2GI,AOML,CCGS_HUDSON,North
2018-08-16T06:00:00Z,1534399200,2018,6,0,228.25,228.25,70.628,30.431,1012.7,9.32,-999.0,yes,yes,no,300234062323360,BD2GI,AOML,CCGS_HUDSON,North
2018-08-16T07:00:28Z,1534402829,2018,7,0,228.292,228.292,70.617,30.461,1012.8,9.37,-999.0,yes,yes,no,300234062323360,BD2GI,AOML,CCGS_HUDSON,North
2018-08-16T07:59:31Z,1534406371,2018,8,0,228.333,228.333,70.611,30.476,1012.6,9.46,-999.0,yes,yes,no,300234062323360,BD2GI,AOML,CCGS_HUDSON,North
2018-08-16T09:00:00Z,1534410000,2018,9,0,228.375,228.375,70.606,30.478,1012.5,9.53,-999.0,yes,yes,no,300234062323360,BD2GI,AOML,CCGS_HUDSON,North
2018-08-16T10:00:28Z,1534413629,2018,10,0,228.417,228.417,70.605,30.462,1012.3,9.54,-999.0,yes,yes,no,300234062323360,BD2GI,AOML,CCGS_HUDSON,North
2018-08-16T10:59:31Z,1534417171,2018,11,0,228.458,228.458,70.611,30.436,1012.2,9.57,-999.0,yes,yes,no,300234062323360,BD2GI,AOML,CCGS_HUDSON,North
2018-08-16T12:00:00Z,1534420800,2018,12,0,228.5,228.5,70.624,30.409,1012.3,9.63,-999.0,yes,yes,no,300234062323360,BD2GI,AOML,CCGS_HUDSON,North
2018-08-16T13:00:28Z,1534424429,2018,13,0,228.542,228.542,70.64,30.379,1012.0,9.6,-999.0,yes,yes,no,300234062323360,BD2GI,AOML,CCGS_HUDSON,North
2018-08-16T13:59:31Z,1534427971,2018,14,0,228.583,228.583,70.656,30.353,1011.9,9.58,-999.0,yes,yes,no,300234062323360,BD2GI,AOML,CCGS_HUDSON,North
2018-08-16T15:00:00Z,1534431600,2018,15,0,228.625,228.625,70.666,30.347,1011.5,9.5,-999.0,yes,yes,no,300234062323360,BD2GI,AOML,CCGS_HUDSON,North
2018-08-16T16:00:28Z,1534435229,2018,16,0,228.667,228.667,70.669,30.364,1011.0,9.45,-999.0,yes,yes,no,300234062323360,BD2GI,AOML,CCGS_HUDSON,North
2018-08-16T16:59:31Z,1534438771,2018,17,0,228.708,228.708,70.663,30.392,1010.9,9.41,-999.0,yes,yes,no,300234062323360,BD2GI,AOML,CCGS_HUDSON,North
2018-08-16T18:00:00Z,1534442400,2018,18,0,228.75,228.75,70.652,30.427,1010.7,9.42,-999.0,yes,yes,no,300234062323360,BD2GI,AOML,CCGS_HUDSON,North
2018-08-16T19:00:28Z,1534446029,2018,19,0,228.792,228.792,70.64,30.462,1010.4,9.42,-999.0,yes,yes,no,300234062323360,BD2GI,AOML,CCGS_HUDSON,North
2018-08-16T19:59:31Z,1534449571,2018,20,0,228.833,228.833,70.629,30.482,1009.9,9.42,-999.0,yes,yes,no,300234062323360,BD2GI,AOML,CCGS_HUDSON,North
2018-08-16T21:00:00Z,1534453200,2018,21,0,228.875,228.875,70.623,30.487,1009.9,9.43,-999.0,yes,yes,no,300234062323360,BD2GI,AOML,CCGS_HUDSON,North
2018-08-16T22:00:28Z,1534456829,2018,22,0,228.917,228.917,70.624,30.479,1009.9,9.47,-999.0,yes,yes,no,300234062323360,BD2GI,AOML,CCGS_HUDSON,North
2018-08-16T22:59:31Z,1534460371,2018,23,0,228.958,228.958,70.633,30.458,1009.2,9.51,-999.0,yes,yes,no,300234062323360,BD2GI,AOML,CCGS_HUDSON,North
2018-08-17T00:00:00Z,1534464000,2018,0,0,229.0,229.0,70.647,30.435,1008.6,9.59,-999.0,yes,yes,no,300234062323360,BD2GI,AOML,CCGS_HUDSON,North
2018-08-17T01:00:28Z,1534467629,2018,1,0,229.042,229.042,70.666,30.414,1008.3,9.61,-999.0,yes,yes,no,300234062323360,BD2GI,AOML,CCGS_HUDSON,North
2018-08-17T01:59:31Z,1534471171,2018,2,0,229.083,229.083,70.681,30.408,1007.7,9.62,-999.0,yes,yes,no,300234062323360,BD2GI,AOML,CCGS_HUDSON,North
2018-08-17T03:00:00Z,1534474800,2018,3,0,229.125,229.125,70.689,30.399,1007.2,9.61,-999.0,yes,yes,no,300234062323360,BD2GI,AOML,CCGS_HUDSON,North
2018-08-17T04:00:28Z,1534478429,2018,4,0,229.167,229.167,70.694,30.411,1006.6,9.61,-999.0,yes,yes,no,300234062323360,BD2GI,AOML,CCGS_HUDSON,North
2018-08-17T04:59:31Z,1534481971,2018,5,0,229.208,229.208,70.69,30.443,1006.0,9.63,-999.0,yes,yes,no,300234062323360,BD2GI,AOML,CCGS_HUDSON,North
2018-08-17T06:00:00Z,1534485600,2018,6,0,229.25,229.25,70.679,30.476,1005.1,9.63,-999.0,yes,yes,no,300234062323360,BD2GI,AOML,CCGS_HUDSON,North
2018-08-17T07:00:28Z,1534489229,2018,7,0,229.292,229.292,70.666,30.506,1004.4,9.62,-999.0,yes,yes,no,300234062323360,BD2GI,AOML,CCGS_HUDSON,North
2018-08-17T07:59:31Z,1534492771,2018,8,0,229.333,229.333,70.655,30.524,1004.2,9.61,-999.0,yes,yes,no,300234062323360,BD2GI,AOML,CCGS_HUDSON,North
2018-08-17T09:00:00Z,1534496400,2018,9,0,229.375,229.375,70.65,30.53,1003.6,9.63,-999.0,yes,yes,no,300234062323360,BD2GI,AOML,CCGS_HUDSON,North
2018-08-17T10:00:28Z,1534500029,2018,10,0,229.417,229.417,70.649,30.529,1003.1,9.65,-999.0,yes,yes,no,300234062323360,BD2GI,AOML,CCGS_HUDSON,North
2018-08-17T10:59:31Z,1534503571,2018,11,0,229.458,229.458,70.654,30.524,1002.6,9.68,-999.0,yes,yes,no,300234062323360,BD2GI,AOML,CCGS_HUDSON,North
2018-08-17T12:00:00Z,1534507200,2018,12,0,229.5,229.5,70.663,30.501,1001.9,9.69,-999.0,yes,yes,no,300234062323360,BD2GI,AOML,CCGS_HUDSON,North
2018-08-17T13:00:28Z,1534510829,2018,13,0,229.542,229.542,70.677,30.47,1001.1,9.7,-999.0,yes,yes,no,300234062323360,BD2GI,AOML,CCGS_HUDSON,North